Theta_e
335 336 338 338 333 329 330 328 329 329 329 329 329 330 329 328 326 323 322 323 324 326 328 332 335 335 334 331 329 327 330 332 321 317 327 333 334 334 333 326 320 320 319 316 314 314 315 316 317 315 316 321 325 329 329 330 330 330 331 332 332 332 332 332 331 331 330 329 329 328 328 327 327 327 323 320 319 319 320 319 318 315 313 314 311
333 335 336 339 334 329 330 329 329 329 329 329 330 329 329 328 326 325 323 323 324 325 326 329 332 334 332 329 328 329 333 328 318 323 331 333 334 334 334 328 318 318 317 314 315 315 315 315 314 312 311 312 317 324 329 330 330 330 330 331 331 331 331 330 330 330 329 329 328 326 325 324 326 326 321 318 318 317 316 315 315 313 314 316 314
335 337 338 339 333 329 331 329 329 328 329 329 329 329 329 327 327 326 325 324 325 326 327 330 331 332 329 327 329 333 332 320 319 329 334 334 335 335 334 332 322 315 315 315 315 316 317 317 314 312 311 310 309 317 327 330 329 330 329 329 330 331 331 330 330 330 329 329 327 326 325 323 323 322 320 317 317 317 316 315 316 314 318 322 322
337 341 340 337 330 331 330 329 328 328 329 329 329 329 328 327 327 326 326 325 327 328 329 332 331 329 327 327 333 335 326 315 325 334 334 334 335 335 334 333 326 315 314 315 315 317 318 317 314 312 310 310 308 311 323 329 328 328 327 328 330 331 332 331 330 330 329 328 327 327 327 325 322 320 318 317 317 318 318 319 321 322 324 326 326
339 342 339 334 330 331 329 327 327 327 328 329 329 329 329 328 328 327 329 328 327 329 330 332 331 328 327 331 336 331 319 318 331 336 335 335 335 335 334 331 325 316 314 315 316 318 319 317 313 312 311 310 308 308 320 327 327 326 325 328 330 332 333 333 332 331 330 328 327 328 329 327 324 319 319 319 320 321 320 321 325 325 325 326 325
341 342 338 332 330 329 326 326 326 327 328 328 329 329 329 329 329 329 333 332 329 330 331 333 332 329 329 334 334 323 316 324 335 336 335 335 335 334 333 328 320 316 316 317 318 320 319 316 313 312 311 310 309 309 319 326 325 325 326 328 330 332 334 334 334 333 332 330 327 329 330 328 324 320 321 323 323 324 319 319 324 323 324 325 324
343 342 336 331 329 327 326 326 326 327 327 328 329 329 329 329 329 330 333 333 332 332 334 334 333 332 333 335 328 318 319 329 335 335 335 335 335 334 332 326 318 316 318 319 320 320 319 316 313 312 311 312 309 310 320 325 324 326 328 329 330 331 332 333 333 332 332 330 328 330 329 326 324 319 320 323 323 326 323 318 320 321 324 324 323
344 341 336 331 329 327 326 326 326 327 327 328 328 329 329 329 330 331 331 333 333 333 334 335 335 335 335 333 324 316 323 333 335 335 335 334 334 333 330 327 319 317 318 319 320 320 319 316 314 312 313 313 310 313 322 323 324 327 328 329 329 330 330 331 331 331 331 328 328 329 327 324 323 319 317 323 326 326 324 320 317 318 322 323 322
344 342 336 331 329 328 327 326 326 326 327 328 328 328 329 330 330 331 330 332 333 332 333 335 336 336 336 332 321 317 328 335 336 335 335 334 334 332 329 326 322 319 320 320 320 320 320 317 313 312 315 315 313 317 322 323 325 328 329 329 330 330 330 331 329 329 329 326 327 327 324 321 320 319 316 321 328 327 322 319 315 314 316 317 318
343 343 338 331 330 329 328 327 326 327 327 327 328 328 329 329 330 330 331 331 331 331 333 334 336 337 337 331 319 321 332 335 335 335 334 334 333 332 330 327 324 322 322 322 321 322 321 318 314 313 317 318 319 321 323 325 327 328 328 329 329 330 331 330 328 327 327 327 327 325 322 321 318 317 317 317 323 323 319 317 315 312 312 312 315
343 344 339 332 330 329 328 327 327 327 327 327 327 327 328 329 330 330 331 331 329 331 332 333 337 337 337 329 317 324 333 334 334 334 333 333 333 333 331 328 326 324 323 323 324 324 322 318 315 314 317 320 323 325 325 326 327 327 328 328 329 330 331 329 326 326 326 327 326 324 322 321 315 313 315 315 315 316 314 314 312 311 310 312 316
342 343 340 333 331 331 328 329 328 327 328 327 327 327 327 328 329 329 330 330 329 332 332 333 337 338 337 326 318 327 334 333 333 333 332 333 332 333 332 331 329 325 322 323 324 324 322 318 316 315 317 321 324 326 326 326 326 326 327 328 328 330 331 327 325 325 325 325 324 322 320 318 312 311 315 316 313 311 311 311 310 310 310 310 313
343 343 340 334 331 332 330 330 329 328 328 327 327 326 327 328 328 329 329 329 330 333 333 334 336 338 336 322 319 331 334 333 333 332 332 331 330 329 329 331 331 329 325 323 323 323 321 320 317 315 317 321 324 326 326 326 326 326 326 327 327 328 328 325 324 325 324 323 324 321 319 319 312 310 314 316 315 311 310 312 310 310 310 310 310
343 343 341 336 332 331 330 330 330 329 329 328 327 326 327 327 327 329 329 329 330 333 335 335 335 338 335 319 321 333 334 333 333 332 331 328 327 327 325 325 327 329 328 324 322 323 322 321 319 315 317 321 324 326 326 326 326 326 325 325 326 326 325 325 325 324 324 324 324 322 321 322 315 309 312 314 317 317 312 311 311 310 311 311 310
343 341 338 336 334 333 331 331 331 331 330 329 328 326 326 325 326 327 329 330 330 332 335 335 334 337 334 319 323 334 334 333 332 331 329 327 328 328 326 324 322 323 327 326 322 322 322 321 320 316 317 321 324 326 326 325 325 324 324 325 327 326 324 324 324 324 325 324 324 324 324 325 316 308 311 312 316 321 316 309 311 310 310 310 309
341 339 334 334 336 335 333 332 331 331 331 330 330 328 327 324 324 325 328 330 329 332 334 334 335 337 332 319 325 334 334 334 332 329 328 328 330 330 328 327 323 318 322 326 323 321 322 321 321 319 318 320 323 325 325 324 324 324 324 325 328 327 325 324 323 323 324 324 324 325 325 324 317 308 310 311 313 319 315 309 311 310 310 309 308
338 337 334 335 337 334 333 332 331 331 331 332 331 329 327 323 323 325 328 329 329 332 333 334 335 337 331 319 328 334 334 335 332 330 329 330 331 331 330 328 325 319 318 323 323 321 321 321 322 320 318 318 320 322 324 325 326 327 326 326 328 327 326 325 324 324 324 324 325 326 325 322 317 309 309 311 311 313 311 309 311 310 310 308 308
335 337 335 336 337 335 334 333 331 332 332 332 331 329 326 322 324 327 329 329 329 332 334 334 335 337 329 320 329 334 333 334 333 332 331 331 332 331 330 327 324 319 316 320 323 321 321 321 321 321 320 318 319 320 324 327 328 329 328 327 327 327 328 326 325 325 325 325 326 326 326 325 320 310 308 310 310 310 309 310 311 310 309 308 307
337 338 336 336 337 336 335 333 332 332 331 332 331 329 324 322 326 328 330 329 330 332 334 334 335 337 328 320 329 333 334 334 333 334 333 333 333 332 330 325 320 317 316 317 321 322 320 321 320 321 320 320 320 321 324 327 328 328 328 327 328 329 330 328 327 327 327 326 327 327 328 328 321 312 308 308 310 310 310 310 310 310 308 308 307
339 338 337 337 337 337 336 334 332 331 331 332 331 327 325 328 330 330 329 328 330 332 333 334 335 337 327 322 331 334 334 335 334 334 334 334 333 332 330 323 317 315 315 314 318 321 320 321 320 320 320 319 319 321 325 327 327 328 328 327 329 330 330 330 329 329 329 327 328 328 329 327 319 313 309 307 309 310 310 310 310 309 308 308 307
339 338 338 337 337 337 337 335 332 332 332 332 330 326 328 333 332 330 330 329 331 332 333 334 335 336 325 325 335 333 332 335 335 335 334 335 333 332 330 323 316 314 314 312 315 320 320 320 320 319 319 319 319 320 324 326 327 328 328 328 329 330 330 330 329 330 329 329 329 330 330 324 315 312 310 307 308 309 310 310 310 309 308 308 307
339 338 338 338 337 336 336 335 333 332 332 332 330 327 329 333 330 329 331 331 333 332 333 334 335 335 326 326 336 333 331 334 335 335 334 334 333 332 330 321 315 314 313 311 313 318 320 320 321 319 318 318 318 320 322 324 326 327 328 328 329 330 330 329 329 330 330 331 330 330 329 320 313 311 310 308 307 308 309 309 309 309 308 308 307
339 338 338 338 337 336 336 334 333 333 332 332 330 329 330 332 329 329 331 331 332 333 332 334 334 335 328 326 333 332 332 334 335 335 333 334 333 332 329 320 315 314 313 311 312 318 320 320 321 319 318 317 318 322 325 327 328 329 330 330 331 331 330 330 330 331 331 332 331 332 327 316 312 311 310 309 306 307 309 309 309 308 308 307 307
338 338 338 337 337 337 336 335 333 333 333 332 331 330 330 330 330 330 331 330 330 332 331 332 334 334 329 325 330 332 332 333 334 335 334 334 333 332 328 319 315 313 314 312 313 317 319 319 320 319 319 316 319 328 330 330 330 331 332 331 331 331 331 331 331 331 331 332 331 331 325 314 312 310 310 310 307 307 308 308 309 308 308 308 307
337 337 337 337 337 337 337 336 335 334 333 333 332 331 331 331 331 330 331 330 329 331 331 332 333 333 329 323 327 331 332 333 333 334 335 334 334 333 328 318 315 314 314 315 315 317 318 318 319 318 318 316 319 327 329 330 331 331 332 332 332 331 332 331 331 331 331 331 331 331 322 312 310 309 309 310 308 307 307 308 308 308 308 307 307
337 337 337 336 336 337 337 337 336 336 335 334 333 333 332 331 331 331 331 330 329 331 332 332 333 332 328 323 325 330 332 332 333 333 334 335 334 334 327 317 317 315 312 314 315 316 317 317 317 316 316 315 317 322 327 329 330 331 332 333 332 332 332 332 331 331 332 332 331 331 322 311 309 307 309 310 309 308 307 307 307 307 307 307 306
336 336 336 336 336 337 337 337 337 337 337 335 334 334 333 332 331 331 330 329 328 330 332 333 333 332 327 323 325 330 332 332 332 332 333 334 333 334 327 316 318 318 315 319 319 317 315 314 314 313 313 315 319 325 329 330 330 332 332 332 333 332 333 332 332 332 333 332 331 331 321 311 309 307 308 309 310 309 308 307 306 306 306 306 306
336 336 337 337 337 337 337 336 336 337 337 336 334 334 333 332 331 330 331 330 328 328 330 332 333 332 328 325 326 329 331 331 332 332 332 333 333 334 328 319 320 322 324 328 328 324 319 316 315 313 314 320 327 330 330 330 330 331 332 333 333 332 332 332 332 332 332 332 331 329 319 313 312 309 308 308 309 310 309 309 308 306 305 305 305
337 337 337 337 337 337 337 335 336 336 336 337 335 333 333 332 332 331 331 331 330 328 330 332 332 332 329 328 329 329 330 331 332 332 333 334 334 334 330 324 323 324 328 330 330 330 328 327 326 322 324 328 330 330 329 330 330 330 331 332 332 332 332 332 332 332 332 331 331 329 322 319 317 313 311 308 308 310 309 310 309 308 307 306 306
337 337 337 337 337 338 337 336 336 336 336 337 335 334 333 332 332 331 331 332 332 330 331 333 333 332 331 330 331 330 330 332 332 332 333 334 333 332 331 329 329 328 329 330 330 331 331 331 331 330 330 330 330 330 330 330 330 330 331 331 332 332 332 333 332 332 331 331 331 330 328 327 325 320 316 313 311 311 310 310 309 309 308 307 307
338 337 337 338 338 338 337 336 336 336 336 336 336 334 333 332 332 332 332 332 332 331 332 333 333 333 332 331 331 330 331 333 332 331 334 334 332 331 331 331 331 329 330 331 330 331 331 331 332 332 331 331 331 331 329 330 330 330 330 331 332 332 333 332 332 332 332 331 331 332 331 332 332 328 323 320 317 313 311 311 310 310 309 308 308
337 337 337 338 338 338 337 337 336 336 336 336 336 335 333 332 332 332 332 332 331 331 331 333 333 333 331 331 331 331 332 333 332 332 334 332 331 331 331 331 331 330 330 331 331 331 331 332 332 331 330 331 332 333 330 330 331 331 331 332 332 332 332 331 332 332 332 332 332 332 332 333 334 331 327 326 324 319 315 312 311 311 311 309 307
334 336 338 338 338 338 338 337 336 337 337 336 337 335 334 333 332 332 332 332 331 331 332 333 333 332 331 331 331 331 332 333 333 333 332 331 331 332 330 330 330 331 332 332 332 331 331 332 332 332 332 332 333 334 332 331 332 332 332 332 332 333 332 332 332 332 332 332 332 332 332 333 333 332 330 329 328 326 322 317 314 312 312 312 310
334 336 338 339 338 338 337 337 336 336 337 337 337 336 335 334 333 331 331 331 331 331 332 332 333 333 331 332 331 331 332 333 334 333 331 330 331 331 331 330 330 331 332 333 333 332 332 332 332 333 333 333 333 333 333 332 332 332 333 333 333 332 332 332 332 332 332 332 332 332 333 333 332 332 332 331 330 329 328 324 320 316 313 313 313
335 335 337 339 339 339 337 337 336 336 337 336 336 336 336 335 333 330 330 330 331 332 331 331 332 333 332 332 331 330 330 331 332 332 331 330 330 332 332 331 330 330 332 333 333 333 332 331 331 332 332 332 332 333 333 332 332 333 333 334 333 332 332 332 332 332 332 332 332 333 332 333 333 333 333 333 332 331 330 329 327 323 318 315 313
332 334 336 338 338 339 338 337 337 336 336 336 336 336 336 335 333 330 329 330 330 331 330 330 331 333 332 332 331 331 329 328 330 332 332 331 331 333 333 332 331 331 331 332 332 332 332 330 331 331 331 332 333 333 333 333 333 334 333 333 333 332 332 332 331 332 332 332 332 332 333 333 333 333 333 334 333 332 331 330 329 327 325 321 318
331 333 335 336 336 338 338 337 336 335 335 335 335 335 335 334 332 331 330 330 330 329 330 330 330 331 333 332 332 331 329 327 328 331 331 331 331 333 333 332 331 331 331 331 331 332 332 330 331 331 332 333 333 333 333 333 333 333 333 333 332 332 332 331 331 331 331 331 331 332 333 333 333 333 333 334 333 333 331 331 331 330 329 327 324
331 332 333 335 335 336 337 337 337 336 335 335 334 334 334 333 332 331 331 330 330 329 329 330 330 331 332 332 332 331 329 328 329 330 329 329 331 332 333 332 330 330 330 330 331 332 332 331 331 332 332 333 333 333 333 333 333 333 333 332 332 331 331 330 329 330 330 331 331 332 332 333 333 333 332 333 333 333 332 331 331 331 331 330 329
331 331 331 334 335 336 336 337 337 336 335 335 334 334 334 333 333 332 331 331 331 329 328 329 331 331 332 332 331 330 328 327 329 329 327 329 332 332 333 331 329 329 329 330 332 332 331 331 331 331 332 334 334 334 333 333 333 334 333 333 331 330 329 328 328 328 329 331 332 332 332 333 333 332 332 332 333 333 333 332 330 330 331 330 330
329 329 330 333 335 336 337 336 336 335 335 335 335 334 334 333 333 332 331 331 331 330 329 330 332 332 332 332 331 330 328 328 329 328 327 330 331 332 334 332 330 330 329 330 332 332 332 332 331 330 331 334 333 333 333 333 333 334 334 333 332 331 329 327 326 326 328 330 331 331 332 332 332 332 332 333 333 333 333 332 331 330 330 331 331
330 329 328 330 332 334 336 335 335 335 334 335 335 334 334 333 332 331 331 331 331 331 331 331 332 333 333 332 332 329 328 328 328 327 327 330 330 331 334 334 333 332 330 330 331 332 332 332 331 330 331 333 332 332 332 332 334 334 333 333 333 332 329 327 326 326 327 329 330 331 332 333 333 332 332 333 333 333 333 333 332 329 328 330 332
329 326 326 327 330 333 334 335 335 334 334 334 335 334 333 332 332 331 330 331 332 332 331 330 331 333 333 333 332 330 328 327 327 326 326 328 329 330 332 333 333 333 331 331 331 332 332 331 330 331 332 332 332 331 330 331 333 333 332 333 334 333 331 329 328 327 327 328 328 329 330 330 330 332 332 333 333 333 332 332 332 331 328 329 331
327 324 324 327 330 331 333 334 335 335 335 335 334 334 333 333 332 331 331 331 332 331 330 329 331 333 333 333 333 331 329 327 327 327 326 327 330 330 329 330 331 333 333 332 332 333 332 329 330 332 332 332 333 332 328 328 329 331 332 333 334 334 332 331 329 328 327 327 328 327 327 327 327 329 330 332 332 331 331 331 331 332 330 330 331
331 326 324 326 328 329 331 333 334 335 335 334 334 334 333 333 333 332 332 332 332 332 331 331 333 334 334 333 333 331 329 328 328 328 328 328 329 330 329 330 330 332 333 334 334 333 332 330 329 330 331 332 332 332 329 326 327 330 333 334 334 333 332 331 330 330 330 330 329 328 327 327 326 326 328 329 329 328 330 330 331 330 330 330 331
332 328 324 323 324 326 328 331 333 334 335 335 334 334 334 333 333 333 333 333 333 333 333 333 334 334 333 333 333 331 329 329 328 329 330 329 329 330 331 331 331 330 332 334 335 333 332 331 329 328 331 332 331 331 329 327 327 330 333 334 334 332 332 331 331 331 332 331 330 329 328 327 326 326 326 326 327 329 330 329 329 330 330 330 330
333 328 325 323 323 324 326 330 332 333 334 335 335 335 335 334 334 334 334 334 334 333 333 333 332 332 332 331 331 330 330 329 328 328 330 330 330 331 332 331 330 329 329 332 333 333 333 332 329 328 332 333 332 331 330 328 328 330 332 334 333 330 330 330 330 330 331 331 330 329 329 329 329 327 327 328 329 330 329 329 330 331 331 331 331
333 331 328 326 324 324 325 328 331 332 333 335 336 336 336 335 335 334 333 333 333 333 332 332 331 330 331 330 330 329 329 329 329 329 330 330 330 331 331 331 330 329 329 330 332 332 332 332 331 330 332 334 333 332 331 330 329 330 332 334 333 331 329 328 328 330 331 332 332 330 330 332 332 331 331 332 332 331 329 330 332 332 333 333 330
334 334 330 327 326 325 325 327 330 331 331 333 334 335 336 336 335 335 334 333 333 333 332 331 331 330 331 330 329 329 329 329 330 331 330 329 329 330 331 331 330 330 329 330 331 332 332 332 332 331 332 332 332 331 331 331 331 330 331 333 333 331 329 328 328 329 330 331 331 331 331 332 332 333 334 333 333 333 331 331 331 332 332 332 330
336 335 331 328 326 327 326 327 329 330 331 332 333 333 335 336 336 335 334 334 333 333 333 332 332 331 331 330 330 330 330 331 332 331 329 328 328 329 331 331 331 330 328 328 330 331 332 332 332 332 332 332 332 331 331 332 331 331 331 332 332 331 330 329 328 329 329 329 330 330 331 330 329 331 333 333 333 333 333 333 332 332 332 331 330
336 336 334 330 328 328 328 328 329 329 330 332 332 333 334 335 336 336 335 335 334 333 333 333 332 332 331 331 331 330 331 331 331 330 329 328 328 328 330 331 332 330 329 329 330 331 331 332 332 332 332 332 331 331 331 331 331 330 331 332 332 331 329 329 328 329 329 329 330 330 330 330 329 329 331 331 331 331 333 334 333 333 332 332 330
338 337 336 333 330 329 329 328 328 329 329 330 331 332 333 334 335 336 335 334 334 333 333 333 332 332 332 331 330 329 329 329 329 330 330 330 328 327 328 330 330 328 330 331 331 331 331 332 332 332 332 332 331 331 330 331 330 330 331 331 331 330 329 329 329 329 329 330 331 330 329 330 330 329 330 329 328 330 333 333 333 332 331 330 330
Wind_Speed
9 9 7 11 16 16 15 14 14 14 13 12 11 11 10 10 8 7 7 8 8 8 8 8 8 8 7 6 6 5 6 6 6 8 10 11 11 11 10 8 7 8 10 9 9 10 10 9 9 8 8 8 9 11 12 11 11 12 12 13 13 13 12 12 12 11 11 11 10 9 8 6 5 3 4 5 5 4 4 4 5 4 3 5 6
8 10 9 12 16 17 16 15 14 14 13 13 12 12 11 10 9 7 7 8 8 8 8 8 8 8 6 6 6 6 6 6 7 10 11 11 11 11 10 9 8 10 10 10 10 9 9 8 8 8 8 7 8 9 12 13 12 13 13 13 13 13 12 11 11 11 12 11 10 10 9 7 4 3 5 5 5 5 5 5 4 3 4 7 9
8 11 13 15 17 18 17 16 16 15 14 13 13 12 12 11 10 8 7 7 7 8 8 8 8 7 6 6 6 6 5 6 9 11 11 11 11 10 9 8 8 9 9 9 8 8 8 8 8 8 8 7 7 10 13 14 14 14 14 14 13 13 11 10 10 10 10 10 10 11 11 9 6 4 5 5 5 5 5 5 4 5 9 12 12
9 12 16 18 18 19 18 18 18 17 16 15 13 12 11 11 10 9 8 7 7 8 8 8 7 6 6 6 7 6 5 7 11 11 11 11 11 10 9 7 7 8 7 7 7 7 8 8 8 8 7 7 8 11 14 15 15 15 14 14 14 13 11 10 9 9 8 7 7 10 12 11 9 6 6 5 5 5 6 7 9 12 13 13 13
10 14 17 19 19 20 19 19 19 18 16 15 14 12 11 10 10 9 8 8 7 7 8 8 6 6 6 7 7 5 6 9 11 11 11 11 11 10 8 7 7 8 8 6 6 6 7 8 8 8 7 6 8 12 16 16 16 15 14 14 13 12 11 11 10 8 6 6 7 10 12 12 11 7 6 7 6 6 7 10 12 12 12 12 12
13 16 18 18 20 20 20 20 18 18 17 15 14 13 11 10 9 8 8 8 7 7 8 8 6 6 6 7 6 6 8 10 11 10 11 11 10 9 8 8 8 9 8 6 6 6 8 7 8 8 7 7 9 14 18 18 18 16 15 14 13 12 11 10 8 5 4 6 8 10 12 12 13 9 6 7 7 8 9 11 11 11 11 11 11
14 17 18 18 20 20 20 19 18 17 16 15 14 13 11 10 9 8 8 7 7 7 8 8 7 7 7 6 5 6 9 10 10 10 10 10 10 10 9 8 8 10 9 7 6 7 8 7 8 8 8 8 10 16 20 21 19 18 16 15 14 12 11 8 5 4 3 6 9 11 12 12 14 11 6 6 7 8 8 8 8 10 11 10 10
15 17 18 19 20 20 20 19 18 17 16 15 14 13 12 10 10 9 8 7 7 7 8 8 8 8 7 6 5 7 9 10 11 11 10 9 10 10 9 8 8 9 9 7 8 8 8 8 8 9 9 11 14 19 22 22 19 17 16 14 13 12 11 8 5 4 2 6 10 11 13 13 13 12 7 6 6 6 6 6 6 8 10 9 9
16 17 17 18 20 20 19 18 18 17 16 15 14 13 12 11 10 10 8 8 8 7 8 8 8 8 8 6 6 8 10 10 11 12 10 9 10 10 10 9 8 7 8 8 9 9 8 8 9 10 12 15 19 22 23 21 18 16 15 13 12 9 8 7 6 5 4 8 11 11 13 14 14 11 7 5 5 3 4 5 6 6 8 9 9
16 16 17 18 19 19 19 18 18 17 16 15 14 14 13 12 11 11 10 9 8 7 8 8 8 9 8 6 6 8 10 10 11 11 10 8 9 10 10 10 8 7 7 8 9 9 7 8 10 12 14 17 21 23 22 19 17 15 13 12 9 8 5 4 4 6 6 8 10 11 13 15 14 10 5 2 3 3 2 3 4 5 6 9 9
16 16 17 18 19 19 19 18 18 17 16 15 14 14 13 12 12 11 11 10 8 7 8 8 8 9 9 6 7 9 10 11 11 11 10 9 9 9 9 10 9 7 7 7 8 8 7 8 10 12 15 18 21 22 20 17 15 14 12 10 8 7 5 3 4 7 8 9 11 11 12 14 15 10 3 1 2 2 2 3 5 6 6 8 9
16 16 17 17 19 19 18 18 17 16 16 15 14 14 13 13 13 12 11 10 9 8 8 9 9 10 9 7 8 10 11 11 11 11 10 9 8 8 8 8 9 8 7 6 7 7 8 9 10 12 14 17 20 20 19 16 15 14 13 10 9 8 7 1 5 7 9 10 11 12 13 14 15 10 3 1 2 3 4 5 6 7 7 9 9
17 16 16 16 17 18 18 17 17 16 16 15 15 14 14 14 13 13 12 11 10 9 9 9 9 10 9 7 9 12 12 11 11 10 10 9 8 7 7 7 7 8 7 6 6 7 8 9 10 12 15 17 19 19 17 15 14 14 13 11 9 7 6 1 5 7 8 10 11 12 13 16 15 9 3 1 3 4 5 6 8 7 8 9 8
18 17 15 15 17 18 18 18 17 17 16 16 15 15 15 15 14 14 14 12 11 10 10 10 10 11 9 7 10 12 12 11 10 10 10 9 9 7 6 5 6 6 7 7 7 7 8 9 10 12 14 17 17 17 16 15 14 14 14 11 7 4 4 1 4 5 6 8 10 11 13 17 17 10 4 1 3 5 6 7 8 7 7 8 7
19 18 16 17 20 21 21 20 19 18 17 17 16 16 16 16 16 15 15 13 11 11 11 10 10 11 10 9 11 12 12 11 10 10 10 10 9 7 6 4 3 5 8 9 8 8 8 9 10 12 14 16 16 16 16 15 15 15 14 10 5 3 2 1 3 4 4 4 7 10 14 18 18 13 8 2 4 5 6 7 7 6 6 7 6
17 17 17 20 22 22 22 21 21 20 19 18 17 17 17 17 17 17 16 14 12 11 12 10 11 12 10 10 11 12 12 11 10 10 10 9 7 6 4 2 1 4 7 11 11 10 9 9 10 12 14 15 15 16 15 15 14 14 13 10 5 3 1 0 2 4 3 3 5 10 14 17 18 15 11 5 4 6 6 6 6 6 6 6 6
14 16 17 19 22 23 22 22 21 20 19 18 17 17 17 18 18 17 16 15 13 12 12 12 13 13 11 11 12 12 12 11 10 9 9 8 6 4 3 1 1 3 6 11 13 12 10 10 10 11 13 13 13 13 14 15 13 12 11 10 7 4 1 2 1 2 3 4 5 9 14 17 17 15 13 7 3 6 6 7 6 6 6 6 6
14 17 18 19 21 23 23 22 22 21 20 18 18 17 17 18 18 18 17 15 14 13 13 14 14 14 12 12 13 12 12 11 10 9 9 7 6 4 2 1 2 3 5 10 14 13 12 11 11 11 12 11 10 11 14 14 12 10 11 10 7 4 0 3 2 2 3 4 5 8 13 16 17 15 13 8 2 5 6 7 6 6 6 6 6
17 19 20 20 21 22 23 23 22 21 19 18 17 17 18 19 19 18 17 15 14 14 14 15 15 14 13 13 14 13 12 12 11 9 8 8 7 5 2 1 3 4 5 10 15 15 13 12 11 10 10 11 10 10 13 13 11 11 10 9 5 1 2 4 4 4 4 4 5 8 12 15 16 14 13 9 2 5 6 7 6 6 7 7 6
19 19 20 20 20 20 22 22 22 21 19 18 17 18 18 19 19 18 17 16 15 15 15 15 15 14 14 15 14 14 13 12 12 10 8 8 7 6 3 1 2 4 5 10 15 15 14 13 11 10 9 10 10 11 12 13 11 10 9 8 4 2 4 4 4 4 4 4 6 9 12 14 15 13 11 9 2 3 4 6 6 7 7 7 6
20 20 20 19 19 19 21 22 22 21 19 18 17 18 18 18 19 18 17 16 15 15 15 15 16 15 15 16 15 14 13 12 12 10 9 9 7 6 4 2 2 3 5 9 15 16 15 13 11 10 9 9 10 11 12 12 11 9 9 7 1 5 4 3 3 4 4 5 7 11 13 15 14 10 9 9 4 1 4 5 6 7 6 7 6
20 21 20 19 18 18 20 21 22 21 19 19 18 18 18 18 18 18 17 16 16 15 15 16 16 16 16 17 16 14 13 12 12 11 10 9 7 7 5 3 3 4 5 9 16 17 15 14 12 10 8 8 9 11 12 11 10 8 7 4 2 4 5 4 3 6 6 6 9 12 15 16 12 7 7 8 5 1 4 5 6 5 5 6 5
21 21 20 20 18 17 19 21 21 20 20 19 18 19 18 18 17 18 18 16 17 16 16 16 16 16 16 16 16 14 13 12 11 10 9 8 8 7 5 5 5 5 5 9 15 17 15 14 12 10 8 7 8 10 10 9 7 5 4 1 1 2 4 4 4 6 8 8 11 13 16 15 10 6 5 7 6 2 3 5 5 5 5 5 4
21 20 19 20 19 18 19 20 21 21 20 19 19 19 19 18 18 18 17 16 17 17 16 16 16 16 16 16 15 15 14 12 11 10 10 9 9 7 5 5 6 6 7 10 14 16 15 13 11 10 8 8 9 10 8 7 5 5 5 4 3 2 2 4 5 8 9 10 11 14 16 14 10 6 4 6 6 3 3 4 5 5 5 5 4
18 18 19 20 20 19 19 20 20 21 21 20 20 20 19 19 18 18 17 16 16 17 17 16 16 16 16 16 15 15 14 13 12 12 11 10 9 7 4 5 6 7 8 10 13 14 13 11 10 9 7 7 9 7 4 3 4 5 6 6 5 2 2 4 5 8 9 10 12 14 16 13 11 6 4 5 5 4 4 4 5 5 6 6 5
17 18 18 19 20 19 19 19 19 20 21 20 20 19 19 19 19 18 17 17 17 17 17 16 17 17 16 17 16 16 15 14 13 12 11 10 9 7 3 5 6 6 8 9 10 11 10 10 9 8 6 7 8 5 2 2 2 3 4 5 4 2 3 6 6 7 8 11 13 14 15 12 10 7 4 4 4 4 4 5 6 6 6 7 6
16 17 18 20 21 21 20 20 19 19 20 20 19 18 18 18 18 18 17 17 18 18 17 17 17 17 17 17 17 17 16 15 14 13 12 10 9 6 4 6 7 7 8 8 7 8 8 9 7 7 6 7 7 4 2 2 1 1 1 1 3 3 3 6 7 7 8 11 12 14 14 10 9 7 5 4 5 4 3 4 5 6 7 7 7
16 16 17 20 22 22 21 21 20 19 20 20 19 19 18 17 18 18 17 16 17 18 18 17 17 17 17 17 17 17 16 15 14 14 12 10 9 7 6 7 9 10 11 10 9 8 7 6 6 6 7 8 7 5 4 3 2 1 1 1 3 3 4 6 7 7 8 10 11 12 12 9 9 8 6 5 5 5 4 4 4 5 6 7 7
15 15 17 20 21 22 23 22 21 20 20 20 20 20 18 17 17 19 18 17 17 18 17 17 18 18 18 18 17 17 17 16 15 14 12 10 10 9 8 9 9 10 11 10 10 9 8 6 6 7 9 7 5 3 4 5 5 4 3 3 3 4 5 7 7 7 9 10 9 10 10 10 10 8 6 6 6 6 5 5 4 5 6 7 7
13 14 16 18 20 22 24 23 21 21 21 21 20 20 19 18 18 18 19 18 17 17 17 18 19 19 18 17 17 17 17 16 15 13 12 11 10 10 10 9 8 7 10 11 10 7 5 5 5 5 5 3 2 3 5 6 7 7 5 3 4 5 8 9 9 8 8 9 8 8 9 10 10 9 7 6 6 6 6 6 6 6 6 6 7
13 15 16 17 19 22 24 24 23 22 22 22 20 20 19 18 18 19 19 19 18 18 18 19 20 20 18 17 16 17 16 15 15 14 13 12 11 11 11 9 8 8 10 11 8 5 4 4 4 3 3 2 2 2 4 4 5 7 6 4 4 6 10 11 10 8 8 8 7 8 9 10 10 9 8 7 6 5 6 7 7 7 7 7 7
16 15 16 17 19 21 23 24 23 23 23 23 22 21 20 18 19 20 20 20 19 18 18 20 22 21 19 17 17 17 16 16 16 16 15 14 13 12 11 10 9 8 9 9 6 4 3 3 3 3 3 3 2 2 3 4 4 6 7 6 7 8 10 9 9 8 8 8 7 8 9 9 9 8 8 8 7 6 5 5 6 7 7 8 8
16 15 15 17 18 20 22 23 23 24 24 24 23 22 21 20 20 21 20 20 19 18 19 21 22 22 21 19 19 18 16 16 17 17 17 16 14 13 12 11 10 8 8 7 6 5 4 4 3 3 3 3 3 3 3 3 3 6 8 8 8 8 9 9 8 9 9 9 9 9 9 8 7 6 7 7 7 7 6 5 4 6 7 8 8
15 17 17 17 18 19 21 23 24 24 25 24 24 23 22 22 21 20 20 19 19 18 19 21 22 22 22 21 21 19 17 17 17 17 17 16 15 13 12 11 10 9 8 6 6 6 6 7 8 6 6 6 6 7 7 6 7 7 8 9 9 8 8 9 10 11 11 10 10 11 9 7 5 5 5 6 7 6 6 5 5 4 5 7 8
16 18 17 17 17 19 21 22 23 24 26 26 25 24 23 22 21 20 19 19 19 18 19 21 22 23 23 23 22 20 18 18 17 17 17 17 15 12 11 11 11 10 9 8 7 7 8 10 13 13 12 11 11 10 10 10 10 10 9 10 10 9 9 10 12 12 12 12 12 12 11 8 5 4 5 5 6 6 6 5 4 4 4 4 6
17 17 17 18 18 19 21 22 23 24 26 26 25 25 24 23 22 21 20 20 19 19 20 21 22 23 24 25 24 21 19 19 18 17 17 17 15 14 13 13 12 11 11 11 10 10 11 11 14 17 15 12 12 12 11 11 9 9 10 11 11 10 10 11 12 14 15 14 14 14 12 10 7 5 4 5 5 6 6 6 5 4 4 3 3
16 16 18 18 19 20 21 22 22 22 24 25 25 25 24 23 22 22 21 20 20 20 21 22 22 23 25 26 24 22 20 19 18 17 16 16 16 17 18 17 15 15 15 14 12 12 13 11 13 15 14 12 12 12 12 11 8 8 9 10 11 11 11 11 12 14 16 16 16 16 14 12 10 7 6 7 7 6 6 6 7 7 6 5 4
15 16 17 17 19 20 21 21 21 21 23 24 24 24 24 23 23 22 21 20 20 21 21 23 24 24 25 26 24 23 21 19 18 17 17 17 17 19 20 19 19 19 18 15 12 13 14 13 12 12 13 13 11 11 12 11 9 8 9 9 10 11 11 11 12 12 14 17 17 17 15 14 13 11 9 9 8 8 7 6 7 7 7 7 6
16 16 17 17 18 19 19 20 21 22 23 23 23 24 24 24 24 23 22 21 21 21 22 24 25 25 25 25 24 23 23 21 20 20 18 18 18 18 19 20 20 20 19 17 14 14 15 15 13 11 13 13 12 12 13 13 11 9 9 9 9 9 10 10 11 12 13 15 16 17 16 15 15 13 10 8 8 8 8 8 8 7 7 7 6
17 17 18 19 19 19 19 20 21 22 23 23 23 25 25 25 25 24 23 23 22 22 22 24 25 26 26 25 24 23 23 23 22 21 20 18 18 18 18 20 21 20 19 18 17 16 16 15 14 13 13 14 14 15 14 14 11 9 9 8 8 9 9 9 9 11 12 14 15 15 17 17 16 14 12 11 9 9 9 9 8 8 8 8 7
19 19 20 20 20 20 20 20 22 23 23 24 25 26 26 26 26 26 26 24 24 24 24 23 24 26 26 26 24 24 23 23 21 20 19 19 18 18 19 19 20 20 19 20 19 17 17 16 16 14 13 13 14 15 15 15 12 10 10 9 8 8 8 8 8 9 11 13 13 14 16 16 17 16 15 14 13 11 11 9 7 7 7 7 7
21 21 21 21 21 21 21 21 22 23 24 25 25 26 26 27 26 26 25 25 24 24 23 22 23 25 26 27 26 25 24 22 20 19 19 19 19 18 18 17 18 19 20 20 20 19 17 17 17 16 14 13 14 14 15 17 15 12 11 10 9 8 7 7 7 8 10 11 12 13 15 17 17 18 17 16 16 15 13 11 9 7 7 5 5
21 21 21 22 22 22 22 22 22 23 24 25 26 26 25 25 25 25 24 24 23 22 21 20 21 23 25 27 27 26 25 22 19 18 19 20 19 18 18 16 17 19 20 21 21 19 18 17 18 18 16 14 15 15 15 16 16 14 12 10 9 8 7 7 7 7 8 10 12 13 14 16 17 17 18 17 17 17 15 13 10 8 7 6 5
23 23 23 24 24 23 23 23 22 22 23 24 24 24 24 24 25 24 23 22 22 21 20 20 20 22 24 26 27 26 24 21 19 18 19 20 20 18 17 16 17 18 19 20 20 19 18 17 18 20 18 16 17 16 15 15 15 13 10 8 7 7 6 6 5 6 7 9 10 12 14 15 15 15 16 16 16 15 13 12 10 7 6 6 5
25 25 24 24 23 22 23 23 22 21 21 22 21 22 23 24 25 25 23 22 22 22 22 22 23 23 24 25 26 25 24 22 20 19 19 20 20 19 17 17 18 20 20 20 20 19 18 16 17 20 19 18 18 17 15 13 13 13 11 9 7 6 5 4 4 4 5 6 7 9 11 12 13 13 13 13 12 10 9 8 6 4 4 4 4
24 24 24 23 22 21 23 24 22 21 20 20 20 20 22 24 25 26 26 25 25 25 25 24 24 24 24 24 24 24 24 22 21 20 19 19 20 19 18 17 19 21 20 19 19 19 18 17 17 20 20 18 18 17 15 13 13 13 13 12 10 8 7 6 5 5 4 4 5 6 6 7 9 10 10 10 8 6 5 3 2 0 2 3 3
23 23 24 24 23 22 22 24 23 21 20 20 20 20 21 22 24 25 26 27 26 26 24 23 23 23 23 23 23 24 23 22 20 20 19 18 19 18 17 17 18 19 19 18 18 19 18 17 18 20 21 20 19 18 17 15 15 14 13 13 11 10 10 10 9 7 5 4 4 6 5 5 6 7 7 6 4 3 3 1 1 1 1 1 1
23 23 24 24 24 23 22 22 23 22 20 20 19 19 19 20 21 23 25 26 25 23 22 21 21 22 22 22 22 22 22 20 19 19 19 18 18 18 18 18 18 19 19 18 19 19 19 18 18 20 21 22 22 21 19 17 17 16 15 13 12 11 11 11 11 10 8 6 5 6 6 7 6 6 5 3 1 1 1 0 1 1 1 1 2
24 22 21 22 24 23 22 22 23 23 21 20 19 18 17 18 19 21 22 23 22 22 21 20 20 21 22 22 21 20 20 19 18 18 19 19 19 18 18 20 19 19 19 19 19 20 19 18 18 18 19 21 21 21 20 18 17 16 16 15 13 12 11 11 11 11 11 9 8 6 6 7 7 7 6 4 2 1 1 1 1 2 1 1 2
24 22 20 21 23 24 23 22 23 23 22 21 20 19 17 17 18 19 20 20 20 21 21 21 21 22 22 21 20 19 19 18 18 18 19 20 19 18 19 20 19 19 19 20 20 20 19 17 18 17 18 18 18 18 17 15 14 14 14 15 15 13 12 11 10 10 10 9 8 8 7 6 6 6 6 4 4 3 3 2 1 2 2 2 3
24 23 22 22 23 24 24 23 22 22 22 21 20 19 18 17 18 18 18 18 19 20 21 21 22 24 24 23 21 20 20 19 18 19 19 19 19 20 21 20 19 18 18 18 18 19 18 17 17 16 16 16 16 16 15 13 13 12 12 13 14 13 12 10 9 8 8 7 7 7 7 5 4 6 6 5 4 4 3 3 3 3 3 4 4
Wind_Direction
171 163 177 173 174 175 174 178 173 176 172 169 164 157 150 145 147 145 144 141 138 137 138 138 131 126 121 114 107 102 107 106 103 117 121 118 120 118 109 97 87 102 119 115 103 96 89 86 86 93 106 116 129 136 137 137 133 131 128 121 116 114 112 109 105 100 93 88 84 74 66 61 73 68 19 21 35 45 49 44 39 36 71 101 95
166 161 177 177 175 175 172 177 177 179 178 173 168 164 156 152 152 148 146 141 142 139 136 135 128 124 119 111 107 111 112 106 117 126 124 122 122 119 110 96 94 107 117 116 110 102 93 88 86 89 93 105 125 136 139 138 134 131 127 121 115 112 110 108 106 101 93 85 78 65 53 49 70 59 12 17 30 33 31 30 24 26 98 100 93
170 173 177 175 178 175 170 176 178 180 182 178 172 170 161 158 157 154 150 145 146 141 136 131 125 122 119 112 110 114 108 112 128 130 126 125 123 118 112 101 98 108 118 119 114 105 97 91 89 90 90 96 113 132 142 143 138 131 125 120 116 114 112 112 113 110 99 86 76 60 49 47 52 38 19 21 31 30 23 32 56 81 95 96 94
179 184 175 174 177 172 171 177 178 181 183 179 176 173 167 165 163 162 157 148 146 142 138 133 128 125 122 115 116 117 109 126 133 132 129 127 122 117 113 104 101 110 119 119 115 104 92 88 88 88 90 96 106 126 143 145 138 131 126 121 118 118 117 119 121 117 102 84 70 51 45 44 42 39 31 25 38 42 41 73 95 97 99 101 101
180 183 176 175 175 171 174 178 179 181 182 180 178 176 173 170 169 168 158 152 150 144 141 136 131 128 125 121 122 121 119 133 136 135 132 127 120 117 113 105 107 114 117 118 113 98 88 89 90 88 91 98 109 129 143 141 132 126 123 123 121 122 123 123 121 111 91 81 66 44 41 41 38 42 47 41 54 54 60 93 102 104 110 109 108
177 179 177 175 173 172 175 177 179 179 180 180 178 179 176 174 174 171 161 156 152 144 141 135 131 129 128 125 123 123 126 134 136 135 133 126 120 118 115 110 115 117 115 116 108 93 89 91 88 86 91 96 115 135 141 136 129 121 114 114 116 121 122 119 113 93 66 70 58 37 37 37 34 42 69 57 56 60 68 96 103 105 108 107 112
174 178 177 176 174 174 175 176 177 177 179 180 179 181 178 178 177 176 172 162 153 141 138 136 132 131 129 128 121 125 130 132 135 135 132 128 124 122 120 118 121 119 119 118 107 97 93 89 83 86 95 98 117 135 135 131 128 119 110 106 105 108 112 114 105 82 43 45 41 31 32 32 32 38 68 66 58 69 77 87 91 99 106 113 119
168 177 180 176 176 176 176 175 176 178 179 179 179 179 178 181 180 180 179 167 158 146 142 144 139 135 134 133 125 131 133 134 139 137 134 132 128 126 124 123 124 120 117 115 110 105 98 91 87 94 105 106 118 130 130 129 126 118 113 108 103 101 103 109 107 99 56 37 39 32 28 26 28 30 46 71 68 77 94 81 70 94 113 120 119
166 178 183 177 178 178 177 176 176 178 180 181 179 179 180 182 184 183 180 170 162 155 153 151 147 144 141 138 129 133 136 139 143 138 136 135 130 128 127 125 124 117 111 111 111 108 103 98 97 106 114 114 120 127 129 129 126 120 117 113 109 105 102 108 110 106 68 42 43 37 26 17 15 16 29 77 98 101 97 71 65 93 120 121 116
168 179 185 180 180 180 178 177 176 178 180 181 181 182 182 183 187 185 180 174 166 164 160 155 155 153 147 140 134 135 139 142 144 141 138 137 132 131 131 129 127 122 114 113 112 108 106 104 105 114 121 120 122 127 129 130 127 124 122 118 115 112 118 133 115 93 65 44 42 34 19 6 360 359 7 76 126 126 81 61 85 103 124 125 117
172 182 186 184 182 181 180 179 178 179 181 182 184 185 185 186 190 188 183 177 172 169 164 162 162 159 154 147 143 142 143 145 147 147 143 141 139 137 136 134 132 131 126 121 116 110 109 109 109 119 127 126 127 129 131 132 130 128 126 125 121 122 148 157 91 77 61 44 37 25 10 359 350 346 341 238 189 142 101 99 118 122 139 132 118
174 182 185 186 184 183 183 182 181 180 182 184 187 188 189 192 194 193 188 183 178 171 169 169 167 166 161 154 152 149 149 150 151 151 148 147 146 144 144 144 142 137 135 129 123 116 112 112 113 123 134 134 132 133 135 135 132 130 129 131 129 141 173 140 60 64 53 41 31 18 7 358 349 344 353 170 190 143 118 121 123 132 145 129 116
176 180 183 188 186 185 186 186 184 184 185 185 189 191 193 197 198 196 194 190 182 174 174 171 169 172 167 160 160 154 154 155 155 154 151 151 148 148 151 154 155 150 145 142 135 125 119 118 116 126 138 140 137 137 138 137 135 133 132 133 132 153 185 94 54 57 49 39 26 16 8 360 355 353 4 110 154 122 114 123 127 136 139 123 117
178 177 178 187 189 190 190 190 189 187 187 188 192 194 196 201 202 200 197 193 184 178 177 174 174 176 173 170 168 160 158 159 159 157 154 153 148 146 149 155 167 169 162 157 152 138 129 126 122 127 140 146 143 142 142 140 140 138 138 135 126 152 177 93 59 53 50 38 20 8 1 357 358 359 359 59 147 127 115 119 124 134 129 119 117
183 177 177 187 193 195 192 192 192 189 189 190 193 196 199 203 204 203 199 194 186 182 181 180 181 177 177 179 171 164 162 160 161 159 154 151 146 146 146 149 173 186 177 166 163 151 139 133 131 130 139 147 147 147 147 144 142 140 142 136 116 129 151 102 65 46 44 29 6 353 350 352 355 357 354 354 166 144 123 119 119 127 123 116 115
189 186 188 193 193 195 194 193 192 191 191 191 194 197 201 204 204 202 198 194 187 184 182 181 184 178 180 182 171 167 167 162 160 159 155 153 149 149 150 156 190 199 188 175 169 162 151 141 138 138 140 144 147 150 150 147 144 141 142 140 123 122 162 327 45 31 22 357 344 344 347 351 353 354 349 338 172 156 137 132 126 127 124 118 116
192 196 198 196 192 195 197 195 195 194 193 193 195 199 203 205 202 198 194 192 189 185 182 181 183 182 181 181 173 171 174 168 162 162 161 162 160 154 155 197 251 227 200 180 175 169 159 151 144 145 146 148 151 156 157 152 147 142 143 147 137 123 180 291 338 0 357 339 333 344 351 354 352 351 347 343 147 156 150 142 141 135 129 125 121
198 199 197 197 194 198 200 198 199 198 196 195 197 201 204 203 197 192 189 188 186 183 183 183 183 184 181 180 179 175 178 176 167 167 167 168 167 163 172 266 275 246 208 180 177 175 166 159 151 148 147 149 153 159 162 160 153 146 144 146 138 113 168 283 311 334 336 336 336 344 350 352 349 348 347 345 95 136 144 139 146 143 134 132 126
202 199 197 199 197 200 202 202 203 201 200 197 198 202 201 198 192 188 187 186 184 183 184 184 183 184 181 180 183 180 181 181 174 173 171 173 173 166 177 275 277 247 210 182 181 180 172 164 157 150 144 145 149 156 163 164 158 150 146 140 130 78 291 283 314 337 333 335 333 337 345 347 344 343 345 343 58 112 131 139 150 148 139 138 131
203 199 198 200 197 202 202 202 205 203 202 199 200 201 196 192 189 188 187 184 184 185 185 185 185 185 184 183 185 183 181 182 180 180 179 179 176 165 166 253 265 236 210 187 185 184 176 171 163 155 148 144 147 158 165 164 160 155 152 141 122 321 300 293 321 349 343 339 327 332 342 344 340 335 339 339 2 109 129 141 149 149 145 144 141
203 198 198 198 196 203 202 201 204 204 201 197 198 198 193 190 190 188 185 183 183 186 186 184 186 186 189 187 186 186 184 184 183 184 186 183 178 168 163 205 233 217 205 190 189 187 180 176 170 162 155 148 145 157 168 167 165 163 157 152 122 316 308 317 3 26 8 339 328 335 341 342 338 328 330 332 320 145 141 143 144 147 148 148 150
203 200 200 199 199 202 200 201 203 203 199 196 196 195 193 193 192 188 185 183 183 187 189 185 187 189 191 191 190 189 188 188 187 189 189 183 182 176 169 186 201 199 196 189 188 186 183 181 176 169 163 154 143 148 163 165 167 169 169 187 294 303 299 324 5 18 5 334 330 339 340 339 337 322 321 327 313 220 155 153 149 152 155 154 159
203 204 203 204 206 203 200 202 203 201 199 198 196 194 195 195 193 191 188 185 183 189 192 189 189 189 193 196 192 189 192 191 191 195 191 185 184 181 179 183 182 185 185 182 184 184 184 186 183 177 169 159 142 137 146 149 148 150 153 180 329 270 289 325 355 358 353 335 332 338 338 338 338 324 319 326 313 259 173 168 163 161 164 166 173
202 206 206 208 210 204 202 202 203 202 200 201 197 195 197 197 195 194 191 186 186 191 193 194 192 190 195 200 193 190 194 192 192 197 193 191 190 185 181 181 177 178 178 177 181 185 188 191 190 186 177 164 149 138 132 126 114 95 82 78 90 133 297 325 342 348 349 340 332 335 339 339 336 325 317 326 311 270 212 192 180 174 177 182 188
200 206 209 210 212 206 202 202 205 205 203 202 200 198 198 198 198 197 193 190 192 194 194 196 193 190 196 200 195 192 194 193 194 196 196 197 196 189 175 174 174 172 177 180 182 187 193 196 198 196 187 174 166 161 142 112 91 73 60 61 76 98 329 320 332 343 345 342 335 337 341 339 335 322 308 320 306 278 246 224 205 193 191 195 196
201 206 210 211 213 208 203 206 207 206 205 205 202 201 201 201 202 200 197 194 196 197 195 195 192 191 197 198 195 194 195 196 196 198 200 200 196 191 175 164 166 164 172 181 187 193 200 204 209 208 198 185 186 195 190 138 97 70 58 53 52 40 324 315 321 330 334 336 335 340 341 339 339 325 301 307 297 284 262 243 228 213 203 203 203
201 205 209 210 213 210 206 210 209 206 207 208 206 205 205 205 205 205 204 200 200 202 199 197 193 193 199 199 196 195 196 197 198 199 200 200 192 183 163 155 156 150 148 155 170 185 197 204 211 211 198 181 183 197 192 160 117 101 81 37 23 359 305 307 315 323 327 330 332 340 342 341 343 331 309 301 288 281 269 255 242 225 214 211 210
205 206 208 209 213 212 210 214 213 208 208 209 208 208 208 207 208 210 208 206 206 206 205 202 198 197 202 201 197 197 198 198 198 198 199 197 187 175 153 148 155 152 143 132 131 137 147 163 169 174 170 163 167 185 208 229 220 195 241 270 2 347 292 293 306 318 317 319 330 340 346 349 348 339 320 305 292 285 276 268 257 241 227 217 215
215 213 212 211 214 213 214 219 217 211 209 209 208 209 210 208 211 212 209 209 210 208 207 206 203 201 202 203 201 199 198 199 198 198 197 188 179 173 152 139 150 163 160 143 129 124 121 130 135 143 150 156 175 215 239 245 240 242 260 264 331 331 294 291 299 315 310 304 317 334 348 358 357 350 334 314 301 294 285 278 272 260 246 228 219
226 224 220 216 215 215 217 220 220 214 210 209 209 210 211 212 213 212 209 210 210 208 206 206 208 207 203 203 205 203 201 202 198 196 191 180 173 169 158 144 141 161 170 158 144 138 133 141 147 156 166 180 232 262 269 256 236 237 241 256 307 304 288 286 287 305 309 296 305 325 338 348 352 355 350 333 311 297 289 283 276 272 266 249 233
230 229 223 220 218 217 219 221 220 216 212 211 212 212 214 216 214 211 209 210 210 209 208 207 210 212 208 204 206 205 204 203 198 194 186 175 170 166 165 160 148 155 167 163 157 154 152 157 166 190 200 220 258 270 262 240 211 217 221 248 285 281 278 275 270 287 303 295 301 317 325 330 335 343 350 351 339 315 294 283 277 276 274 267 256
228 229 223 222 221 219 220 221 220 216 213 212 212 213 215 217 215 212 210 210 211 211 210 209 210 212 212 207 206 206 205 202 196 191 186 179 177 174 174 170 157 156 167 169 172 179 178 173 181 201 207 228 274 327 265 218 194 199 211 252 271 272 275 268 257 268 290 291 293 305 314 321 325 332 341 348 351 345 326 297 279 276 277 276 271
227 228 224 222 221 221 220 221 220 217 215 213 212 214 215 217 216 214 212 211 211 211 210 210 209 211 213 210 207 207 206 202 195 190 189 186 185 185 186 179 164 164 175 182 199 211 214 228 227 213 227 250 256 285 266 211 205 207 226 263 271 272 273 261 252 264 280 282 283 290 299 311 319 330 339 343 346 346 347 334 301 278 273 275 275
226 225 223 222 220 219 219 219 220 218 218 216 214 215 217 219 218 215 214 213 213 212 210 209 208 209 212 213 210 207 204 202 197 192 192 194 197 196 195 190 181 181 190 205 220 221 232 245 242 224 224 239 230 233 231 217 224 229 248 269 265 261 262 255 256 265 272 273 276 281 287 296 307 324 335 341 342 337 340 345 342 319 283 273 270
223 223 222 221 218 216 216 218 220 220 219 217 216 216 219 221 220 218 216 215 214 213 211 209 208 209 211 213 212 208 205 205 204 198 195 202 210 208 210 208 200 198 201 214 218 219 238 242 236 229 225 232 229 226 229 226 234 242 253 266 265 261 257 255 257 262 266 268 272 275 279 282 285 305 320 328 331 326 323 326 337 345 328 297 276
221 221 221 221 218 216 216 219 220 220 219 218 217 217 220 222 222 223 222 217 216 214 213 211 210 210 211 214 214 212 209 208 210 206 201 208 210 205 214 221 216 212 210 217 216 220 241 239 229 229 226 226 226 226 233 236 243 252 258 267 271 266 258 255 256 262 264 265 268 269 272 274 268 275 291 295 299 300 305 311 315 319 320 311 291
217 216 218 219 217 216 218 220 221 220 219 219 219 218 220 222 222 224 224 222 222 220 216 214 213 213 213 213 213 214 214 213 214 212 208 211 211 203 210 222 225 221 214 217 219 224 240 236 227 229 221 215 219 226 235 241 249 261 269 272 269 264 259 257 258 262 262 261 264 264 265 266 263 260 262 267 272 280 291 303 310 311 306 299 293
213 212 215 217 215 215 217 220 221 220 220 220 220 219 217 218 220 222 223 225 227 224 219 216 216 214 213 212 212 214 216 218 219 218 215 214 215 210 212 220 223 219 215 216 219 223 232 232 231 228 214 211 218 227 236 242 247 255 267 271 268 263 261 259 258 259 257 256 260 264 262 262 265 265 260 262 272 280 281 284 296 302 304 304 301
210 209 211 213 213 217 219 220 220 219 220 220 220 218 216 215 218 220 222 224 225 221 218 217 217 216 214 213 214 216 218 221 222 221 219 216 214 212 213 214 213 214 216 217 215 218 226 232 235 226 214 218 225 229 236 240 245 256 264 269 270 265 264 263 261 258 252 250 254 260 260 259 264 268 267 272 279 280 277 278 284 284 288 294 294
209 208 208 210 212 216 218 219 218 218 219 219 218 217 216 215 217 220 222 222 219 216 217 218 217 217 217 216 216 219 220 222 222 220 218 215 214 211 208 207 208 214 219 219 217 217 225 235 241 230 217 225 234 235 238 241 249 266 273 276 276 268 264 264 265 261 253 249 250 253 255 258 264 270 275 279 280 282 282 281 281 277 273 270 269
208 209 209 210 213 214 214 214 213 215 218 219 219 217 217 216 217 221 222 220 216 216 219 218 217 216 216 217 217 217 218 220 220 218 216 217 217 213 208 205 209 215 219 222 223 222 227 234 238 230 220 227 238 240 240 241 249 264 276 284 285 277 268 262 262 259 250 247 248 248 249 255 265 271 275 279 283 287 288 286 280 276 270 256 256
205 208 211 212 214 215 214 213 211 212 216 220 222 222 221 219 221 224 224 220 217 220 223 221 217 214 213 215 215 215 216 218 220 220 219 221 221 217 212 210 213 217 219 223 227 231 236 234 227 223 222 229 237 241 241 240 244 255 267 279 287 289 279 264 260 256 249 247 249 249 250 255 262 267 271 277 284 288 290 290 281 272 265 254 261
207 208 212 212 214 216 214 212 210 210 213 218 222 225 226 224 225 230 230 225 222 223 227 226 220 216 214 214 214 215 216 218 221 224 225 225 222 220 218 217 221 223 223 226 231 236 240 234 224 220 225 232 235 243 245 240 242 249 260 274 282 287 283 270 264 259 254 252 253 255 256 259 260 263 267 273 281 286 288 287 279 266 250 242 262
209 209 209 211 214 215 215 212 209 208 210 214 219 223 226 227 228 232 233 231 229 228 229 228 224 220 217 214 214 216 218 220 223 227 229 228 227 226 225 224 226 227 227 229 234 239 239 237 229 223 227 233 236 246 250 242 240 244 253 264 268 276 276 266 264 264 259 255 258 259 258 261 262 261 263 269 277 279 281 285 283 269 242 232 254
210 210 209 211 213 213 215 213 210 209 208 211 216 219 221 223 226 227 227 227 228 229 227 224 222 220 217 215 214 217 220 223 225 229 232 231 230 230 229 227 227 228 229 231 234 236 237 238 232 226 229 236 240 249 252 245 242 245 246 246 249 264 267 257 267 276 264 252 250 252 256 261 262 261 260 265 275 278 278 289 293 270 227 218 228
213 212 212 213 212 213 214 213 213 211 208 209 211 215 217 218 221 223 221 220 222 226 226 224 221 218 217 214 214 218 222 224 225 228 233 232 229 228 228 228 231 232 233 236 235 232 233 236 232 228 230 236 240 246 249 245 245 246 246 244 247 257 261 261 274 287 286 262 240 238 252 256 251 253 255 260 277 287 278 287 320 310 168 183 196
216 215 216 216 215 213 213 214 214 214 212 210 210 213 214 216 219 223 224 223 224 227 227 226 222 218 217 214 214 217 220 224 226 229 231 230 228 229 230 231 233 234 234 237 237 235 234 237 236 233 233 236 240 245 249 248 246 247 246 245 247 255 260 261 262 267 275 270 245 232 233 229 232 241 244 252 278 291 271 283 4 41 100 139 157
217 218 218 218 217 215 215 215 215 217 218 215 214 214 215 216 218 222 226 227 228 231 230 225 220 218 216 215 216 218 221 226 228 228 228 229 229 230 235 236 233 231 232 235 237 237 237 238 239 237 236 239 243 248 252 250 249 251 250 247 247 253 259 258 253 251 256 263 261 245 228 221 227 232 225 229 277 308 284 254 124 128 132 138 142
216 220 220 219 220 219 219 219 218 220 222 222 221 218 218 219 219 222 225 226 229 232 232 226 220 216 215 215 216 218 223 225 225 226 227 228 229 232 236 237 233 229 230 234 237 237 237 239 241 240 240 242 244 248 251 251 252 253 252 248 248 253 257 255 249 247 252 257 259 255 240 232 232 229 225 228 239 201 159 166 133 140 157 140 128
216 221 222 222 223 222 222 222 221 222 224 226 226 222 221 222 221 222 224 225 226 228 229 225 220 216 213 213 215 218 222 225 227 228 227 226 228 234 239 239 236 232 232 236 238 238 239 240 241 242 243 244 245 248 249 249 249 249 249 246 245 248 250 252 250 249 252 253 255 256 250 243 235 230 234 235 221 195 178 184 135 135 146 131 107
216 218 220 223 224 225 226 225 225 225 226 229 231 228 226 227 227 225 223 222 221 222 223 220 216 215 215 215 218 222 227 230 233 233 229 227 228 233 240 242 239 236 237 240 241 240 240 241 242 242 244 244 245 246 245 242 242 244 244 242 240 240 244 249 251 248 248 250 254 249 238 237 231 220 223 223 208 184 169 169 150 137 131 116 93